Hourly Data Report for October 04, 2017

All times are specified in Local Standard Time (LST). Add 1 hour to adjust for Daylight Saving Time where and when it is observed.

RED LAKE A
ONTARIO

51°04'02.000" N
93°47'35.000" W
385.90 m
6016971
YRL

Related Data

No related data is available for this station

Download Data

Hourly Data (October 2017)
Hourly Data Report for October 4, 2017
Temp Definition
°C
Dew Point Temp Definition
°C
Rel Hum Definition
%
Wind Dir Definition
10's deg

Wind Spd Definition
km/h
Visibility Definition
km
Stn Press Definition
kPa
Hmdx Definition


Wind Chill Definition


Weather Definition


TIME
00:00 Legend Double Dagger 6.8 6.5 98 19 6 LegendMM 97.31     LegendNANA
01:00 Legend Double Dagger 6.1 5.9 98 20 8 LegendMM 97.30     LegendNANA
02:00 Legend Double Dagger 6.5 6.1 97 18 7 LegendMM 97.27     LegendNANA
03:00 Legend Double Dagger 6.4 5.9 97 20 6 LegendMM 97.22     LegendNANA
04:00 Legend Double Dagger 7.1 6.5 96 24 11 LegendMM 97.20     LegendNANA
05:00 Legend Double Dagger 7.1 6.4 95 25 14 LegendMM 97.21     LegendNANA
06:00 Legend Double Dagger 6.9 6.0 94 26 13 LegendMM 97.19     LegendNANA
07:00 Legend Double Dagger 6.9 5.5 91 26 23 LegendMM 97.23     LegendNANA
08:00 Legend Double Dagger 7.2 6.0 92 24 15 LegendMM 97.13     LegendNANA
09:00 Legend Double Dagger 7.5 6.4 92 25 21 LegendMM 97.13     LegendNANA
10:00 Legend Double Dagger 7.8 6.2 89 25 28 LegendMM 97.12     LegendNANA
11:00 Legend Double Dagger 8.3 6.1 86 24 23 LegendMM 97.05     LegendNANA
12:00 Legend Double Dagger 8.1 6.0 87 24 34 LegendMM 97.00     LegendNANA
13:00 Legend Double Dagger 8.3 6.2 87 24 24 LegendMM 97.01     LegendNANA
14:00 Legend Double Dagger 9.1 5.3 77 25 31 LegendMM 96.99     LegendNANA
15:00 Legend Double Dagger 9.8 4.9 71 25 27 LegendMM 96.98     LegendNANA
16:00 Legend Double Dagger 10.3 3.1 61 27 25 LegendMM 96.99     LegendNANA
17:00 Legend Double Dagger 10.1 2.8 60 26 23 LegendMM 96.99     LegendNANA
18:00 Legend Double Dagger 9.1 2.9 65 27 17 LegendMM 97.01     LegendNANA
19:00 Legend Double Dagger 8.8 3.3 68 27 13 LegendMM 97.04     LegendNANA
20:00 Legend Double Dagger 8.7 4.4 74 25 16 LegendMM 97.03     LegendNANA
21:00 Legend Double Dagger 8.6 3.0 68 27 16 LegendMM 97.02     LegendNANA
22:00 Legend Double Dagger 8.4 3.2 70 29 13 LegendMM 97.04     LegendNANA
23:00 Legend Double Dagger 8.0 3.4 73 28 13 LegendMM 97.05     LegendNANA

Notes on Data Quality.

Legend

  • E = Estimated
  • M = Missing
  • NA = Not Available
  • ‡ = Partner data that is not subject to review by the National Climate Archives
Date modified: